Vorticity
8 8 8 8 10 11 13 14 16 16 15 13 11 10 10 9 9 8 7 6 6 6 8 10 11 11 8 4 3 5 8 14 19 20 18 13 9 10 14 18 21 21 18 14 10 8 7 7 9 10 12 12 11 9 8 6 5 4 4 3 3 4 4 5 6 7 7 8 9
7 8 8 9 10 11 13 15 15 14 12 11 10 10 10 9 8 8 7 7 7 8 10 13 15 15 13 10 9 10 12 14 18 20 20 17 12 11 14 18 21 20 17 12 9 7 7 7 8 9 10 10 9 8 6 5 4 4 3 3 3 4 5 5 6 7 8 9 10
6 6 7 6 6 6 6 6 5 5 4 4 5 5 5 6 5 5 6 8 9 11 13 16 18 18 16 15 15 16 16 17 19 21 21 19 15 13 14 18 21 20 16 11 8 6 6 7 7 8 8 8 8 7 5 4 4 3 3 3 4 5 5 6 7 8 9 10 10
4 4 3 2 0 -2 -3 -5 -4 -4 -3 -2 -1 1 2 3 4 5 6 9 11 14 16 18 19 20 19 19 19 20 20 19 20 21 21 20 16 15 16 19 20 19 15 11 8 6 6 6 6 7 7 7 7 6 5 4 3 3 3 3 4 5 6 6 8 8 9 10 10
9 8 7 7 5 3 0 -2 -3 -2 -2 -1 -0 1 3 5 6 8 10 12 14 16 17 17 18 19 19 19 20 20 20 20 20 21 20 19 17 17 17 19 18 17 14 10 8 6 6 6 6 7 7 7 6 5 4 3 3 2 2 3 4 5 6 7 8 9 10 10 11
17 15 14 13 12 11 10 8 6 4 3 4 5 6 9 11 14 15 17 18 17 16 15 14 15 16 17 17 18 19 20 21 21 20 19 18 18 18 18 19 17 14 12 9 8 6 6 6 7 8 8 8 6 5 4 3 2 2 2 3 4 5 6 7 8 9 10 11 12
18 17 15 13 12 11 11 10 8 8 7 8 9 12 15 18 20 21 22 21 18 15 14 13 15 16 17 18 19 20 21 21 21 19 18 18 18 19 19 18 15 12 10 8 7 7 7 7 8 9 9 7 6 4 3 2 2 2 3 3 4 5 6 8 9 10 11 12 13
5 7 8 8 8 8 8 8 8 8 9 10 12 15 17 20 22 22 21 19 16 14 13 14 16 18 19 19 20 20 21 21 20 19 18 18 19 19 19 16 13 10 8 7 7 7 8 9 9 9 8 7 5 3 2 2 2 3 3 4 5 6 6 8 9 10 11 12 13
-3 1 5 8 8 8 9 9 10 11 13 14 16 17 17 18 19 19 18 15 13 13 13 15 17 19 20 21 21 20 20 19 19 18 18 19 20 20 18 16 12 9 8 7 7 8 9 10 9 8 7 6 4 3 3 3 3 3 3 4 5 6 7 8 9 10 11 12 13
2 2 4 8 11 14 16 17 18 18 19 19 18 17 16 16 16 16 14 12 12 12 12 13 15 17 19 20 20 20 19 19 18 19 19 20 20 20 18 15 12 9 8 7 8 8 9 9 8 7 6 5 4 4 4 4 3 3 4 4 5 6 7 8 9 10 12 13 13
14 13 12 13 15 18 20 20 20 20 20 19 17 15 14 14 14 13 13 12 10 10 9 10 11 14 17 19 20 20 19 19 19 20 20 21 21 19 17 14 11 9 8 7 8 8 9 8 7 6 5 5 4 4 4 4 4 4 4 4 5 6 7 8 9 10 12 13 13
11 9 9 10 12 13 13 12 12 13 14 13 12 11 12 13 13 13 12 10 8 7 7 7 9 12 15 18 19 19 20 20 20 21 22 22 20 18 16 13 11 9 8 7 8 8 8 8 7 6 6 5 5 5 5 4 4 4 4 4 5 6 7 8 9 10 11 12 13
6 7 10 11 11 10 7 4 4 6 7 8 8 9 10 11 11 10 9 7 6 6 6 7 10 12 14 16 18 19 20 20 21 22 22 21 19 17 15 13 11 9 8 8 8 8 8 8 7 7 6 6 6 5 5 4 4 4 4 5 5 6 6 7 9 10 11 12 13
12 11 11 11 10 7 4 -0 -0 2 4 5 6 8 9 9 8 7 6 6 5 5 7 10 13 14 15 16 17 18 19 20 21 22 21 20 18 16 14 12 11 9 9 9 9 9 9 8 8 7 6 6 6 5 5 4 4 4 4 5 5 5 6 7 8 9 10 11 12
16 12 7 5 5 3 1 -0 -0 1 3 5 6 6 6 5 5 5 5 4 4 5 8 12 15 16 17 16 16 17 18 19 20 20 20 19 16 15 13 12 11 10 9 9 9 9 8 8 7 6 5 5 5 5 4 4 4 4 5 5 5 5 6 6 7 8 9 10 12
16 14 11 8 7 6 6 7 7 7 6 6 5 3 2 1 3 4 5 4 5 6 9 13 17 19 19 18 17 17 17 18 19 19 18 17 15 13 12 11 10 9 9 9 9 8 8 7 6 5 5 4 4 5 5 5 5 5 5 5 5 5 5 6 6 7 8 10 12
11 12 11 10 11 13 16 20 20 17 13 8 3 -1 -1 1 5 7 7 7 7 9 11 15 19 21 21 19 18 17 17 17 17 17 16 15 13 12 11 10 9 8 8 8 8 8 7 6 5 5 5 5 5 5 5 5 5 5 5 5 5 5 5 6 6 7 8 9 11
7 8 8 9 12 17 23 28 27 22 14 5 -0 -1 2 7 10 11 11 10 10 11 13 16 20 22 22 20 18 17 16 16 16 15 14 13 12 11 10 9 8 8 8 8 8 7 7 6 5 5 5 5 5 5 5 5 5 5 5 5 6 6 5 5 5 6 7 8 10
7 7 7 8 11 14 16 18 16 11 5 -1 0 4 9 13 14 14 13 11 11 12 14 17 20 22 22 21 18 17 16 16 15 14 14 12 12 11 10 9 8 8 8 8 8 7 7 7 6 6 6 6 6 6 6 6 6 6 6 6 6 6 5 5 5 6 6 8 9
10 8 6 4 4 4 3 2 -0 -2 -2 -0 5 11 15 16 16 15 13 11 11 13 15 17 20 21 21 20 18 17 16 16 15 14 14 12 11 11 10 10 9 8 8 8 8 8 8 8 7 7 7 7 7 7 7 7 7 6 6 6 6 6 5 5 5 5 6 7 8
12 7 3 -1 -2 -1 1 2 1 1 2 6 11 15 17 17 15 13 11 11 13 14 16 18 19 19 19 18 17 17 16 16 16 15 14 13 12 11 11 10 9 9 9 9 9 9 9 9 8 7 7 7 7 7 7 7 7 7 7 6 6 6 5 5 4 5 5 6 8
12 5 -1 -7 -5 1 8 12 12 12 12 12 14 15 16 15 13 11 11 12 14 16 17 18 18 17 16 16 15 15 15 16 15 15 14 14 13 12 11 10 10 10 9 9 9 9 9 9 8 8 7 7 8 8 8 7 7 7 6 6 6 5 5 4 4 4 4 5 7
11 2 -7 -12 -4 5 12 16 17 17 16 14 14 14 13 12 10 10 11 13 16 17 18 18 17 16 15 14 13 13 13 14 14 14 14 14 13 12 11 11 10 10 10 9 9 8 8 8 8 7 7 7 7 8 8 7 7 7 6 6 6 6 5 5 4 4 4 5 6
3 -9 -15 -9 3 11 16 17 17 16 15 12 12 11 11 10 10 11 12 14 16 17 18 18 16 15 14 13 12 12 12 12 12 12 13 13 12 12 11 11 10 10 9 9 8 8 7 7 7 7 7 7 7 7 7 7 7 7 6 6 6 6 5 5 5 4 4 5 6
-14 -14 -8 6 15 20 21 19 17 14 11 10 10 10 10 10 10 10 11 12 14 16 17 17 15 14 13 12 11 11 11 11 11 11 11 12 12 11 11 10 10 9 9 9 8 8 7 7 7 7 7 7 7 7 7 7 7 7 7 7 6 6 6 6 5 5 5 5 6
-5 3 14 25 28 27 23 18 13 10 8 9 10 10 10 9 9 10 11 12 14 15 16 15 14 13 11 11 10 10 10 10 10 11 11 11 11 11 11 10 10 10 9 9 9 8 8 8 8 7 7 7 7 7 7 7 7 7 7 7 7 7 6 6 6 6 6 6 6
17 25 33 37 33 26 18 10 7 7 9 10 11 11 10 11 12 14 16 17 17 16 15 14 12 11 10 10 9 9 9 9 10 10 11 11 11 11 11 11 11 11 10 10 10 9 9 9 9 8 8 8 8 8 8 8 8 8 8 8 8 7 7 7 7 7 7 6 6
30 37 39 36 25 16 8 5 6 9 11 12 12 12 14 16 19 21 22 21 19 16 14 12 11 10 10 9 9 9 8 8 9 9 10 11 11 12 12 12 12 12 11 11 10 10 10 10 10 10 9 9 9 9 9 9 8 8 8 8 8 8 8 8 8 8 7 7 7
34 35 32 23 13 7 5 7 10 12 13 12 14 16 19 22 22 23 22 21 18 16 14 13 12 11 10 10 9 9 8 8 8 9 9 10 12 12 13 13 13 13 12 11 11 11 11 11 11 10 10 10 10 9 9 9 9 8 8 8 8 8 8 8 8 8 8 8 8
28 25 19 10 6 6 9 12 14 14 14 15 18 20 22 22 22 23 22 22 21 19 17 15 13 12 10 9 8 8 8 9 9 9 10 11 12 12 13 13 13 13 13 12 11 11 11 11 11 11 10 10 10 9 9 9 8 8 8 8 8 8 8 8 9 9 9 9 9
19 15 11 7 8 11 14 15 14 14 15 17 19 19 19 19 20 20 21 22 21 20 18 16 13 11 9 8 7 8 8 9 10 11 11 12 12 12 12 13 13 13 13 12 11 10 10 10 11 11 11 10 10 10 9 9 8 8 8 8 8 8 8 9 9 9 9 9 9
19 16 13 11 13 15 15 14 14 14 14 15 14 13 13 12 13 13 14 15 15 15 15 13 11 9 8 7 8 8 9 10 11 12 12 12 12 12 12 12 13 13 12 12 11 10 9 9 10 10 11 10 10 9 9 8 8 8 8 8 8 8 8 9 9 9 10 10 10
22 20 18 17 17 16 14 13 12 11 10 9 7 6 6 6 7 7 8 9 10 10 10 9 8 7 7 7 8 8 9 9 10 11 11 11 12 12 12 12 12 12 11 11 10 9 8 8 9 9 10 10 10 9 9 9 8 8 8 8 8 8 8 9 9 10 10 10 10
20 20 19 17 16 14 13 12 10 8 6 4 4 3 3 4 4 4 4 5 5 6 6 5 5 5 5 5 6 6 7 7 7 8 8 8 9 9 10 10 10 10 10 10 9 9 8 7 7 8 9 9 9 9 9 9 9 9 9 9 9 9 9 9 9 10 10 10 10
16 16 15 14 14 13 11 10 8 6 5 5 5 5 5 4 3 3 2 3 3 3 3 2 3 3 3 4 5 5 5 5 6 6 6 6 6 7 7 8 9 9 9 9 9 9 8 7 7 7 8 9 9 9 9 9 9 9 9 9 9 9 9 9 9 10 10 10 10
15 13 12 11 10 10 9 7 7 7 8 9 10 10 10 9 7 5 5 5 5 4 4 4 5 6 6 7 8 8 9 9 9 8 8 8 8 7 7 7 7 8 8 9 9 10 10 9 8 7 8 9 10 10 9 9 9 9 8 9 9 9 9 9 9 9 9 9 9
12 9 8 8 8 7 7 7 8 9 11 13 14 15 15 14 13 11 11 11 11 11 11 11 11 12 12 12 13 13 13 13 13 13 13 13 12 11 11 10 9 9 9 9 10 10 11 11 9 8 8 8 9 10 10 9 9 9 9 9 9 9 9 9 9 9 9 9 9
7 6 6 6 6 7 7 8 9 11 13 16 17 17 17 17 16 15 15 15 15 14 14 13 13 13 12 12 12 12 12 12 12 13 13 13 14 14 13 13 12 12 11 11 11 11 11 11 10 8 7 7 8 9 9 9 9 9 8 8 9 9 9 9 9 8 8 8 9
6 6 6 6 6 6 7 8 9 12 14 16 16 16 16 15 14 14 13 12 11 10 10 9 8 8 8 8 8 9 9 9 9 10 10 10 11 12 12 12 12 12 12 12 11 11 10 10 9 7 6 6 6 7 7 7 7 8 8 8 9 9 9 9 8 8 8 8 9
5 5 5 4 4 5 6 7 9 11 13 15 15 14 13 12 11 10 9 8 7 7 6 6 5 6 6 6 7 7 8 8 9 9 9 10 10 10 11 11 11 11 12 11 11 11 10 10 9 8 6 5 6 6 6 6 7 7 8 8 8 9 9 9 8 8 8 8 9
4 3 2 1 2 3 5 7 9 11 12 13 13 12 11 10 9 7 6 6 6 6 6 5 5 5 5 5 6 6 7 7 8 9 10 10 11 11 11 12 12 12 12 12 12 12 12 11 11 10 9 7 7 7 7 7 7 8 8 9 9 9 9 9 9 8 8 9 9
Height
5603 5603 5604 5604 5604 5605 5605 5604 5604 5604 5603 5603 5603 5602 5602 5602 5602 5601 5601 5601 5600 5600 5600 5599 5599 5599 5598 5598 5598 5598 5598 5598 5598 5598 5598 5599 5598 5598 5599 5599 5600 5601 5602 5603 5605 5606 5607 5608 5609 5610 5611 5612 5613 5614 5615 5615 5616 5617 5617 5618 5618 5618 5619 5619 5619 5619 5620 5620 5619
5599 5599 5600 5600 5601 5601 5601 5600 5599 5599 5599 5598 5598 5598 5598 5598 5597 5597 5596 5596 5596 5596 5595 5595 5594 5594 5594 5593 5593 5593 5593 5593 5594 5594 5594 5594 5594 5594 5595 5595 5596 5597 5598 5599 5601 5602 5603 5604 5605 5606 5607 5608 5609 5610 5611 5611 5612 5613 5613 5614 5614 5615 5615 5615 5615 5615 5615 5615 5615
5595 5595 5596 5596 5597 5597 5596 5596 5595 5595 5595 5594 5594 5594 5594 5593 5593 5593 5592 5592 5592 5591 5591 5590 5590 5589 5589 5589 5589 5589 5589 5589 5589 5589 5590 5590 5590 5590 5590 5591 5592 5593 5594 5595 5597 5598 5599 5600 5601 5602 5603 5604 5605 5606 5607 5608 5608 5609 5609 5610 5610 5611 5611 5611 5611 5611 5611 5611 5611
5591 5591 5592 5592 5592 5592 5592 5592 5591 5591 5591 5590 5590 5590 5589 5589 5589 5588 5588 5588 5587 5587 5586 5586 5585 5585 5584 5584 5584 5584 5584 5584 5584 5585 5585 5586 5586 5586 5586 5587 5588 5589 5590 5592 5593 5594 5595 5596 5597 5598 5599 5600 5601 5602 5603 5603 5604 5605 5605 5606 5606 5607 5607 5607 5607 5607 5607 5607 5607
5586 5587 5587 5588 5588 5588 5588 5587 5587 5587 5586 5586 5586 5585 5585 5585 5584 5584 5583 5583 5583 5583 5582 5582 5581 5580 5580 5580 5579 5579 5579 5580 5580 5580 5581 5581 5582 5582 5583 5583 5584 5585 5586 5588 5589 5590 5591 5592 5593 5594 5595 5596 5597 5598 5599 5600 5600 5601 5602 5602 5603 5603 5603 5603 5603 5603 5603 5603 5603
5582 5582 5583 5583 5583 5583 5583 5583 5583 5582 5582 5582 5582 5581 5581 5580 5580 5580 5579 5579 5579 5578 5578 5577 5577 5576 5576 5575 5575 5575 5575 5576 5576 5576 5577 5577 5578 5578 5578 5579 5580 5581 5583 5584 5585 5586 5587 5588 5589 5590 5591 5592 5593 5594 5595 5596 5597 5597 5598 5599 5599 5599 5599 5599 5599 5599 5599 5599 5599
5577 5578 5578 5578 5579 5579 5579 5579 5578 5578 5578 5578 5578 5577 5577 5577 5576 5576 5575 5575 5575 5574 5574 5573 5573 5572 5572 5571 5571 5571 5571 5572 5572 5572 5573 5573 5573 5574 5575 5576 5577 5578 5579 5580 5581 5582 5583 5584 5585 5586 5588 5588 5589 5590 5591 5592 5593 5594 5594 5595 5595 5596 5596 5596 5596 5595 5595 5595 5595
5573 5573 5573 5574 5574 5575 5575 5575 5574 5574 5574 5574 5574 5573 5573 5573 5572 5572 5571 5571 5571 5570 5570 5569 5569 5568 5568 5567 5567 5567 5567 5568 5568 5568 5569 5569 5570 5570 5571 5572 5573 5574 5575 5576 5578 5579 5580 5581 5582 5583 5584 5585 5586 5587 5588 5589 5589 5590 5591 5591 5592 5592 5592 5592 5592 5591 5591 5591 5591
5569 5569 5569 5570 5570 5571 5571 5571 5571 5570 5570 5570 5570 5569 5569 5569 5568 5568 5568 5567 5567 5566 5566 5565 5565 5564 5564 5563 5563 5563 5563 5564 5564 5564 5565 5565 5566 5567 5568 5568 5569 5571 5572 5573 5574 5575 5576 5578 5578 5579 5580 5582 5583 5583 5584 5585 5586 5587 5587 5588 5588 5588 5588 5588 5588 5588 5587 5587 5587
5564 5564 5565 5566 5566 5567 5567 5567 5566 5566 5566 5566 5566 5565 5565 5565 5564 5564 5564 5563 5563 5563 5562 5562 5561 5561 5560 5560 5560 5560 5560 5560 5560 5561 5561 5562 5562 5563 5564 5565 5566 5567 5568 5569 5571 5572 5573 5574 5575 5576 5577 5578 5579 5580 5581 5582 5583 5583 5583 5584 5584 5584 5584 5584 5584 5583 5583 5583 5583
5560 5561 5561 5562 5562 5562 5563 5563 5562 5562 5562 5562 5562 5561 5561 5561 5561 5560 5560 5560 5559 5559 5558 5558 5558 5557 5557 5556 5556 5556 5556 5556 5557 5557 5558 5558 5559 5559 5560 5561 5563 5564 5565 5566 5567 5568 5570 5571 5572 5573 5573 5574 5575 5576 5577 5578 5579 5579 5580 5580 5580 5580 5580 5580 5580 5580 5580 5580 5580
5557 5557 5557 5557 5558 5558 5558 5558 5558 5558 5558 5558 5558 5558 5557 5557 5557 5557 5556 5556 5556 5556 5555 5555 5554 5554 5553 5553 5553 5553 5553 5553 5553 5554 5554 5555 5555 5556 5557 5558 5559 5560 5561 5563 5564 5565 5566 5567 5568 5569 5570 5571 5572 5573 5573 5574 5575 5575 5576 5576 5576 5577 5577 5577 5577 5576 5576 5576 5576
5553 5553 5553 5553 5553 5554 5554 5554 5554 5554 5554 5554 5554 5554 5553 5553 5553 5553 5553 5553 5553 5552 5552 5552 5551 5551 5550 5550 5549 5549 5549 5550 5550 5550 5551 5552 5552 5553 5554 5555 5556 5557 5558 5559 5560 5562 5563 5564 5565 5566 5567 5568 5568 5569 5570 5570 5571 5572 5572 5572 5573 5573 5573 5573 5573 5573 5573 5572 5572
5549 5549 5549 5549 5550 5550 5550 5550 5550 5550 5550 5550 5550 5550 5550 5550 5549 5549 5549 5549 5549 5549 5549 5549 5548 5548 5547 5547 5547 5546 5547 5547 5547 5547 5548 5548 5549 5550 5551 5551 5552 5553 5554 5556 5557 5558 5559 5560 5561 5562 5563 5564 5565 5565 5566 5567 5567 5568 5568 5568 5569 5569 5569 5569 5569 5569 5569 5568 5568
5544 5545 5546 5546 5546 5547 5547 5547 5546 5546 5546 5546 5546 5546 5546 5546 5546 5546 5546 5546 5546 5546 5546 5545 5545 5545 5544 5544 5543 5543 5543 5544 5544 5544 5545 5546 5546 5547 5548 5548 5549 5550 5551 5553 5554 5555 5556 5557 5558 5558 5559 5560 5561 5562 5562 5563 5563 5564 5564 5565 5565 5566 5566 5566 5565 5565 5565 5565 5565
5541 5542 5542 5543 5543 5543 5543 5543 5542 5542 5542 5542 5542 5542 5542 5543 5543 5543 5543 5542 5542 5542 5542 5542 5542 5542 5541 5541 5541 5541 5541 5541 5541 5542 5542 5543 5543 5544 5544 5545 5546 5547 5548 5549 5550 5551 5552 5553 5554 5555 5556 5556 5557 5558 5558 5559 5559 5560 5561 5561 5561 5562 5562 5562 5562 5562 5562 5562 5562
5537 5538 5538 5539 5539 5539 5539 5538 5538 5538 5538 5538 5538 5539 5539 5539 5539 5539 5539 5539 5539 5539 5539 5539 5538 5538 5538 5538 5538 5538 5538 5538 5538 5539 5539 5540 5540 5541 5542 5542 5543 5544 5545 5546 5547 5548 5549 5550 5551 5551 5552 5553 5553 5554 5554 5555 5556 5556 5557 5557 5558 5558 5558 5558 5558 5558 5558 5558 5558
5533 5534 5534 5535 5535 5535 5535 5534 5534 5534 5535 5535 5535 5536 5536 5536 5536 5536 5535 5535 5535 5536 5536 5536 5535 5535 5534 5534 5534 5534 5535 5535 5536 5536 5537 5537 5538 5538 5538 5539 5540 5541 5542 5542 5543 5544 5545 5546 5547 5548 5548 5549 5549 5550 5551 5552 5552 5553 5553 5554 5554 5554 5554 5554 5554 5554 5554 5554 5554
5530 5530 5531 5531 5531 5531 5531 5531 5531 5531 5531 5532 5532 5533 5533 5533 5533 5532 5532 5532 5532 5532 5532 5532 5532 5532 5531 5531 5531 5532 5532 5532 5533 5533 5533 5534 5534 5535 5536 5536 5537 5538 5538 5539 5540 5541 5542 5543 5543 5544 5545 5545 5546 5547 5547 5548 5548 5549 5550 5550 5550 5550 5551 5551 5551 5551 5551 5551 5551
5526 5527 5527 5527 5527 5528 5528 5528 5528 5528 5528 5528 5529 5529 5529 5529 5529 5529 5529 5529 5529 5529 5529 5529 5529 5528 5528 5528 5528 5528 5529 5529 5529 5530 5530 5531 5532 5532 5533 5533 5534 5534 5535 5535 5536 5537 5538 5539 5540 5541 5541 5542 5543 5543 5544 5544 5545 5546 5546 5547 5547 5547 5547 5547 5547 5547 5547 5547 5547
5522 5523 5523 5523 5524 5524 5525 5525 5525 5525 5525 5525 5525 5526 5526 5526 5526 5526 5526 5526 5526 5526 5526 5526 5526 5525 5525 5525 5525 5526 5526 5526 5526 5527 5527 5528 5528 5529 5529 5530 5530 5531 5532 5533 5533 5534 5535 5536 5537 5537 5538 5538 5539 5540 5540 5541 5542 5542 5543 5543 5543 5543 5543 5543 5543 5543 5543 5543 5543
5518 5518 5519 5520 5521 5521 5522 5522 5522 5522 5521 5522 5522 5522 5523 5523 5522 5522 5522 5522 5522 5522 5522 5522 5523 5523 5523 5523 5523 5523 5523 5523 5523 5524 5524 5525 5525 5526 5526 5527 5527 5528 5528 5529 5530 5531 5532 5532 5533 5534 5534 5535 5536 5536 5537 5537 5538 5538 5539 5539 5539 5540 5540 5540 5540 5540 5540 5540 5540
5514 5515 5516 5517 5518 5518 5518 5518 5518 5518 5518 5518 5519 5519 5519 5519 5519 5519 5519 5519 5519 5519 5519 5519 5519 5519 5519 5520 5520 5520 5520 5520 5521 5521 5521 5522 5522 5523 5523 5523 5524 5525 5525 5526 5527 5528 5528 5529 5529 5530 5531 5532 5532 5533 5533 5533 5534 5535 5535 5535 5536 5536 5536 5536 5536 5536 5536 5536 5536
5511 5512 5513 5514 5514 5515 5515 5514 5514 5514 5515 5515 5516 5516 5516 5516 5516 5516 5515 5515 5516 5516 5516 5516 5516 5516 5516 5517 5517 5517 5518 5518 5518 5518 5518 5518 5519 5520 5520 5521 5521 5522 5523 5523 5524 5524 5525 5525 5526 5527 5528 5528 5529 5529 5529 5530 5530 5531 5531 5532 5532 5532 5532 5533 5533 5533 5533 5533 5533
5508 5509 5510 5511 5511 5511 5511 5511 5511 5511 5512 5512 5512 5512 5512 5512 5512 5512 5512 5512 5513 5513 5513 5513 5513 5513 5513 5514 5514 5514 5514 5515 5515 5515 5515 5516 5516 5517 5517 5518 5518 5519 5519 5520 5520 5521 5521 5522 5523 5523 5524 5525 5525 5525 5526 5526 5526 5527 5527 5528 5528 5528 5528 5529 5529 5529 5529 5529 5528
5505 5506 5506 5507 5508 5508 5507 5507 5507 5508 5508 5509 5509 5509 5509 5509 5509 5509 5509 5509 5509 5510 5510 5510 5510 5510 5511 5511 5511 5511 5512 5512 5512 5512 5513 5513 5513 5514 5514 5515 5515 5516 5516 5517 5517 5518 5518 5518 5519 5520 5520 5521 5521 5522 5522 5522 5523 5523 5523 5524 5524 5524 5525 5525 5525 5525 5525 5525 5525
5500 5501 5502 5503 5504 5504 5504 5504 5504 5505 5505 5505 5505 5505 5506 5506 5506 5506 5506 5506 5506 5507 5507 5507 5507 5508 5508 5508 5508 5508 5508 5509 5509 5509 5509 5510 5510 5510 5511 5511 5512 5513 5513 5513 5514 5514 5514 5515 5515 5516 5517 5517 5517 5518 5518 5518 5519 5519 5519 5520 5520 5520 5520 5521 5521 5521 5521 5521 5521
5496 5498 5499 5500 5501 5501 5501 5501 5502 5502 5502 5502 5502 5502 5503 5503 5503 5503 5503 5503 5503 5504 5504 5504 5504 5505 5505 5505 5505 5505 5505 5506 5506 5506 5507 5507 5507 5507 5508 5508 5508 5509 5510 5510 5510 5511 5511 5511 5512 5512 5513 5513 5513 5513 5514 5514 5515 5515 5515 5516 5516 5516 5516 5516 5517 5517 5517 5517 5517
5493 5494 5496 5498 5498 5499 5499 5499 5498 5498 5498 5498 5499 5499 5499 5499 5499 5499 5499 5500 5500 5501 5501 5501 5502 5502 5502 5502 5502 5502 5502 5503 5503 5503 5503 5504 5504 5504 5504 5504 5505 5506 5507 5507 5507 5507 5508 5508 5508 5508 5508 5509 5509 5509 5510 5510 5511 5511 5511 5512 5512 5512 5512 5512 5512 5513 5513 5513 5513
5490 5492 5493 5495 5495 5496 5496 5496 5495 5495 5495 5495 5496 5496 5496 5496 5496 5496 5497 5497 5497 5498 5498 5498 5498 5499 5499 5499 5499 5499 5499 5499 5500 5500 5500 5501 5501 5501 5501 5501 5501 5502 5503 5504 5504 5504 5504 5504 5504 5504 5505 5505 5505 5505 5506 5506 5507 5507 5507 5508 5508 5508 5508 5508 5508 5508 5508 5509 5509
5488 5489 5491 5492 5492 5493 5493 5492 5492 5492 5492 5493 5493 5493 5493 5493 5493 5493 5493 5494 5494 5494 5495 5495 5495 5496 5496 5496 5496 5496 5496 5496 5496 5497 5497 5497 5498 5498 5498 5498 5498 5498 5499 5500 5501 5501 5501 5501 5501 5501 5501 5501 5501 5501 5502 5502 5503 5503 5503 5503 5503 5504 5504 5504 5504 5504 5504 5505 5505
5486 5487 5488 5488 5489 5489 5489 5488 5488 5488 5489 5489 5490 5490 5490 5490 5490 5490 5490 5491 5491 5491 5492 5492 5492 5493 5493 5493 5493 5493 5493 5493 5493 5493 5494 5494 5494 5494 5494 5495 5495 5495 5496 5497 5497 5498 5498 5497 5497 5497 5497 5497 5497 5497 5498 5498 5498 5498 5499 5499 5499 5500 5500 5500 5500 5500 5500 5500 5500
5483 5484 5484 5485 5485 5485 5485 5485 5485 5485 5486 5486 5487 5487 5487 5487 5487 5487 5487 5487 5488 5488 5489 5489 5489 5490 5490 5490 5490 5490 5490 5491 5491 5491 5491 5491 5491 5491 5491 5491 5491 5492 5492 5493 5494 5494 5494 5494 5493 5493 5493 5493 5493 5493 5493 5494 5494 5494 5495 5495 5495 5495 5496 5496 5496 5496 5496 5496 5496
5480 5481 5481 5481 5482 5482 5482 5482 5482 5483 5483 5483 5483 5484 5484 5484 5484 5484 5484 5484 5484 5485 5486 5486 5486 5487 5487 5487 5487 5488 5488 5488 5488 5488 5488 5488 5488 5488 5488 5488 5488 5488 5488 5489 5490 5491 5491 5491 5490 5489 5489 5488 5488 5489 5489 5490 5490 5490 5491 5491 5491 5491 5491 5492 5492 5492 5492 5492 5492
5477 5478 5478 5478 5478 5478 5478 5479 5479 5479 5480 5480 5480 5480 5481 5481 5481 5481 5481 5481 5481 5482 5482 5483 5483 5483 5484 5484 5484 5484 5484 5484 5484 5484 5484 5484 5485 5485 5485 5485 5485 5485 5485 5485 5486 5487 5487 5488 5487 5486 5485 5484 5484 5485 5485 5486 5486 5486 5487 5487 5487 5487 5487 5487 5488 5488 5488 5488 5488
5474 5474 5474 5475 5475 5475 5476 5476 5476 5476 5476 5476 5477 5477 5477 5478 5478 5478 5478 5478 5478 5478 5479 5480 5480 5480 5481 5481 5481 5481 5481 5481 5481 5481 5481 5481 5481 5481 5482 5482 5482 5482 5482 5482 5482 5482 5483 5484 5483 5483 5482 5481 5481 5481 5481 5482 5482 5482 5483 5483 5483 5483 5483 5483 5483 5483 5483 5483 5483
5471 5471 5472 5472 5472 5473 5473 5473 5473 5473 5473 5473 5473 5474 5474 5474 5475 5475 5475 5475 5475 5476 5476 5477 5477 5477 5478 5478 5478 5478 5478 5478 5478 5478 5478 5478 5478 5478 5478 5478 5478 5478 5478 5478 5478 5478 5479 5480 5480 5479 5478 5477 5477 5477 5478 5478 5478 5478 5478 5478 5478 5478 5478 5479 5479 5479 5479 5479 5479
5468 5469 5469 5469 5469 5469 5470 5470 5470 5470 5470 5470 5471 5471 5471 5471 5472 5472 5472 5472 5473 5473 5473 5474 5474 5474 5474 5475 5475 5475 5475 5475 5475 5475 5475 5474 5474 5475 5475 5475 5475 5475 5475 5475 5475 5475 5475 5475 5476 5476 5475 5473 5473 5473 5473 5474 5474 5474 5474 5474 5474 5474 5474 5474 5474 5474 5474 5474 5474
5466 5466 5466 5467 5467 5467 5467 5467 5467 5467 5467 5468 5468 5468 5468 5468 5469 5469 5469 5470 5470 5470 5470 5471 5471 5471 5471 5471 5471 5472 5472 5471 5471 5471 5471 5471 5471 5471 5471 5471 5471 5471 5471 5471 5471 5471 5471 5471 5472 5472 5471 5470 5469 5469 5469 5469 5470 5470 5469 5469 5469 5469 5469 5470 5470 5470 5470 5470 5470
5463 5463 5463 5464 5464 5464 5464 5464 5464 5465 5465 5465 5465 5465 5466 5466 5466 5466 5467 5467 5467 5468 5468 5468 5468 5468 5468 5468 5468 5468 5468 5468 5468 5468 5468 5468 5467 5468 5468 5468 5468 5468 5467 5467 5467 5467 5467 5467 5467 5467 5467 5466 5465 5464 5464 5465 5465 5465 5465 5465 5465 5465 5465 5465 5465 5465 5465 5465 5465
5460 5461 5461 5461 5461 5461 5461 5462 5462 5462 5462 5462 5462 5463 5463 5463 5463 5463 5464 5464 5464 5465 5465 5465 5465 5465 5465 5465 5464 5464 5464 5464 5464 5464 5464 5464 5464 5464 5464 5464 5464 5463 5463 5463 5463 5462 5462 5463 5463 5463 5463 5462 5460 5460 5460 5460 5460 5460 5460 5460 5460 5460 5460 5460 5461 5461 5461 5461 5461